Stations météo

réclame
Mon MeteoGroup
Abbeville, France (7005): Température de l'air & dewpoint: 12.01.2019 13:00:00 - 18.01.2019 13:00:00 (CET)Abbeville, France (7005): Température de l'air 5cm: 12.01.2019 13:00:00 - 18.01.2019 13:00:00 (CET)Abbeville, France (7005): Température de l'air -20cm & Température de l'air -100cm: 12.01.2019 13:00:00 - 18.01.2019 13:00:00 (CET)Abbeville, France (7005): Vitesse du vent & gusts: 12.01.2019 13:00:00 - 18.01.2019 13:00:00 (CET)Abbeville, France (7005): Direction du vent: 12.01.2019 13:00:00 - 18.01.2019 13:00:00 (CET)Abbeville, France (7005): reduced air pressure: 12.01.2019 13:00:00 - 18.01.2019 13:00:00 (CET)Abbeville, France (7005): visibility: 12.01.2019 13:00:00 - 18.01.2019 13:00:00 (CET)Abbeville, France (7005): Ensoleillement: 12.01.2019 13:00:00 - 18.01.2019 13:00:00 (CET)Abbeville, France (7005): Quantités de précipitations: 12.01.2019 13:00:00 - 18.01.2019 13:00:00 (CET)
Date & Time tt [°C] td [°C] tt 5cm [°C] tt -20cm [°C] tt -100cm [°C] ff [km/h] ff [knt] fx [km/h] fx [knt] dd ppp [hPa] vv [km] sd [min] rr [mm]
18.01.2019 13:00:00 - - - - - - - - - - - - - -
18.01.2019 12:00:00 2,8 -0,1 1,5 4,0 8,1 10 5 13 7 SE 1020,0 19 38 0,2
18.01.2019 11:00:00 0,7 -0,9 -0,4 4,1 8,1 9 5 12 6 SE 1020,3 19 15 0,0
18.01.2019 10:00:00 -0,5 -1,6 -1,2 4,2 8,1 4 2 10 6 SSE 1019,9 13 15 0,0
18.01.2019 09:00:00 -0,5 -1,8 -2,1 4,3 8,1 5 3 9 5 SSE 1019,7 18 0 0,0
18.01.2019 08:00:00 -0,2 -1,8 -0,9 4,4 8,1 6 3 10 5 ESE 1019,4 19 0 0,0
18.01.2019 07:00:00 -0,1 -1,5 -1,2 4,5 8,1 7 4 10 5 SSE 1019,7 17 0 0,0
18.01.2019 06:00:00 0,2 -1,6 -0,9 4,6 8,1 5 3 7 4 S 1019,7 19 0 0,0
18.01.2019 05:00:00 0,3 -1,8 -0,7 4,7 8,1 4 2 10 6 SSW 1019,7 19 0 0,0
18.01.2019 04:00:00 0,5 -1,9 -0,9 4,8 8,1 5 3 8 4 S 1019,8 20 0 0,0
18.01.2019 03:00:00 1,4 -1,3 -1,3 4,9 8,1 2 1 5 3 WSW 1019,6 20 0 0,0
18.01.2019 02:00:00 0,7 -1,7 -1,1 5,0 8,1 5 3 12 6 NW 1019,5 20 0 0,0
18.01.2019 01:00:00 0,7 -1,7 -0,7 5,2 8,1 9 5 14 7 WNW 1019,4 20 0 0,0
18.01.2019 00:00:00 1,3 -1,8 -1,7 5,3 8,1 9 5 11 6 W 1019,1 20 0 0,0
17.01.2019 23:00:00 1,1 -2,0 -0,8 5,5 8,1 7 4 14 7 NW 1018,7 20 0 0,0
17.01.2019 22:00:00 1,6 -1,8 0,3 5,6 8,1 10 6 16 9 W 1018,4 20 0 0,0
17.01.2019 21:00:00 1,1 -2,0 -1,0 5,8 8,1 12 6 15 8 WNW 1017,9 20 0 0,0
17.01.2019 20:00:00 0,9 -2,5 -1,2 5,9 8,1 4 2 19 10 WNW 1017,0 20 0 0,0
17.01.2019 19:00:00 2,4 -2,0 1,3 6,1 8,1 14 8 27 15 NW 1016,3 20 0 0,0
17.01.2019 18:00:00 2,9 -1,7 1,8 6,2 8,1 16 9 27 14 NW 1015,3 20 0 0,0
17.01.2019 17:00:00 3,2 -1,9 2,5 6,2 8,1 18 10 39 21 NW 1014,5 20 0 0,0
17.01.2019 16:00:00 4,3 -1,5 5,3 6,2 8,1 26 14 48 26 NW 1013,2 20 0 0,0
17.01.2019 15:00:00 4,2 -0,2 4,0 6,2 8,1 26 14 40 22 NW 1012,2 20 46 0,0
17.01.2019 14:00:00 3,8 1,7 2,2 6,2 8,1 27 15 47 26 NW 1011,4 20 6 0,8
17.01.2019 13:00:00 4,5 1,7 3,6 6,2 8,1 24 13 50 27 NW 1010,4 11 7 0,2
17.01.2019 12:00:00 4,9 1,7 4,7 6,2 8,1 28 15 45 25 NW 1009,8 20 14 0,0
17.01.2019 11:00:00 5,4 2,2 4,6 6,3 8,1 24 13 41 22 NW 1008,9 20 33 0,0
17.01.2019 10:00:00 5,0 3,2 4,2 6,3 8,1 27 14 41 22 NW 1007,4 20 0 0,4
17.01.2019 09:00:00 5,2 3,5 4,5 6,4 8,1 23 12 36 19 NW 1005,8 12 0 0,4
17.01.2019 08:00:00 5,6 4,4 4,5 6,4 8,1 18 10 29 16 W 1004,2 20 0 0,2
17.01.2019 07:00:00 5,0 4,0 3,8 6,4 8,1 14 8 35 19 SW 1003,6 13 0 1,0
17.01.2019 06:00:00 4,6 2,9 3,6 6,5 8,1 20 11 55 30 WSW 1003,9 18 0 2,4
17.01.2019 05:00:00 5,5 4,0 4,4 6,5 8,1 10 5 24 13 SW 1004,3 10 0 0,4
17.01.2019 04:00:00 5,7 4,2 4,6 6,6 8,1 11 6 27 15 WSW 1004,7 19 0 0,4
17.01.2019 03:00:00 5,9 4,4 5,0 6,6 8,1 12 7 27 15 SSW 1004,8 17 0 0,2
17.01.2019 02:00:00 5,6 3,8 5,0 6,6 8,1 6 3 10 6 SSW 1005,1 20 0 0,0
17.01.2019 01:00:00 6,2 4,0 5,4 6,6 8,1 7 4 17 9 SW 1005,3 20 0 0,0
17.01.2019 00:00:00 6,8 4,1 5,9 6,6 8,1 13 7 24 13 W 1005,6 20 0 0,0
16.01.2019 23:00:00 6,8 5,6 5,9 6,6 8,1 15 8 34 18 WSW 1005,1 16 0 0,0
16.01.2019 22:00:00 6,4 5,3 5,6 6,7 8,1 18 10 35 19 SW 1005,0 7 0 0,0
16.01.2019 21:00:00 6,2 4,5 5,6 6,7 8,1 16 8 34 18 SSW 1004,7 4,1 0 0,4
16.01.2019 20:00:00 6,3 4,0 5,8 6,7 8,1 11 6 32 18 S 1004,8 20 0 0,0
16.01.2019 19:00:00 6,5 4,0 5,8 6,7 8,1 15 8 34 18 SSW 1005,1 14 0 0,0
16.01.2019 18:00:00 6,8 2,9 6,4 6,7 8,1 12 6 27 14 SSW 1005,6 20 0 0,0
16.01.2019 17:00:00 6,8 2,7 6,5 6,6 8,1 13 7 32 17 S 1006,1 20 0 0,0
16.01.2019 16:00:00 6,7 2,6 6,6 6,6 8,1 13 7 29 16 SSW 1006,8 20 0 0,0
16.01.2019 15:00:00 7,0 2,5 6,7 6,5 8,1 12 7 29 16 SSW 1007,2 20 0 0,0
16.01.2019 14:00:00 6,2 2,3 6,5 6,5 8,1 13 7 31 17 S 1008,2 20 0 0,0
16.01.2019 13:00:00 6,1 2,2 6,6 6,4 8,1 13 7 34 18 S 1009,2 19 0 0,0
16.01.2019 12:00:00 6,2 2,5 6,3 6,4 8,1 11 6 24 13 SSW 1010,5 20 0 0,0
16.01.2019 11:00:00 5,8 2,3 5,5 6,5 8,1 11 6 28 15 S 1011,4 20 6 0,0
16.01.2019 10:00:00 5,3 2,1 4,9 6,5 8,1 11 6 25 13 S 1012,1 20 0 0,0
16.01.2019 09:00:00 5,2 2,0 4,9 6,5 8,1 11 6 25 14 SSW 1012,5 16 0 0,0
16.01.2019 08:00:00 5,2 1,9 5,0 6,5 8,1 10 5 29 16 SSW 1012,7 18 0 0,0
16.01.2019 07:00:00 5,5 2,1 5,2 6,6 8,1 13 7 26 14 SSW 1013,3 20 0 0,0
16.01.2019 06:00:00 5,6 2,2 5,4 6,6 8,1 10 5 24 13 SSW 1013,9 20 0 0,0
16.01.2019 05:00:00 5,8 2,6 5,5 6,6 8,1 8 4 26 14 SSW 1014,7 20 0 0,0
16.01.2019 04:00:00 6,0 3,0 5,7 6,7 8,1 10 5 28 15 SSW 1015,5 20 0 0,0
16.01.2019 03:00:00 6,1 3,1 5,7 6,7 8,1 11 6 26 14 SSW 1015,9 20 0 0,0
16.01.2019 02:00:00 6,3 3,3 3,8 6,7 8,1 13 7 27 15 SSW 1016,7 20 0 0,0
16.01.2019 01:00:00 6,4 3,7 3,9 6,7 8,1 11 6 24 13 SSW 1017,4 20 0 0,0
16.01.2019 00:00:00 6,5 4,3 6,0 6,7 8,1 10 5 19 11 SSW 1018,0 20 0 0,0
15.01.2019 23:00:00 6,6 4,6 6,0 6,7 8,1 8 4 24 13 SSW 1018,6 19 0 0,0
15.01.2019 22:00:00 6,7 4,7 5,7 6,7 8,1 10 5 21 11 SSW 1019,2 12 0 0,0
15.01.2019 21:00:00 6,7 4,7 6,0 6,7 8,1 9 5 18 10 SSW 1019,2 20 0 0,0
15.01.2019 20:00:00 6,6 4,9 5,6 6,7 8,1 7 4 18 10 SW 1019,8 20 0 0,0
15.01.2019 19:00:00 6,4 5,2 5,7 6,7 8,1 8 4 19 10 SSW 1020,1 20 0 0,0
15.01.2019 18:00:00 6,8 5,6 6,2 6,7 8,1 10 5 23 12 SW 1020,5 11 0 0,0
15.01.2019 17:00:00 6,9 6,2 6,6 6,6 8,1 9 5 20 11 SW 1020,7 6 0 0,0
15.01.2019 16:00:00 6,8 6,2 6,5 6,6 8,1 10 5 24 13 SW 1020,9 3,7 0 0,2
15.01.2019 15:00:00 6,9 6,2 6,6 6,5 8,1 18 10 31 17 WSW 1021,2 3,1 0 0,2
15.01.2019 14:00:00 7,0 6,1 6,5 6,5 8,1 17 9 30 16 WSW 1021,6 5 0 1,4
15.01.2019 13:00:00 7,3 5,4 6,4 6,4 8,1 12 7 21 11 W 1022,1 9 0 0,0
15.01.2019 12:00:00 7,2 4,3 6,6 6,4 8,1 16 9 24 13 W 1022,6 17 0 0,0
15.01.2019 11:00:00 7,2 3,2 6,2 6,4 8,1 13 7 24 13 W 1023,0 20 0 0,0
15.01.2019 10:00:00 6,4 3,9 5,6 6,5 8,1 9 5 14 7 WSW 1023,1 20 0 0,0
15.01.2019 09:00:00 6,0 3,5 5,5 6,5 8,1 5 3 13 7 SSW 1022,7 20 0 0,0
15.01.2019 08:00:00 6,0 3,2 5,2 6,5 8,1 9 5 14 8 SW 1022,7 20 0 0,0
15.01.2019 07:00:00 5,5 3,0 4,7 6,6 8,1 6 3 13 7 SW 1022,9 20 0 0,0
15.01.2019 06:00:00 5,4 3,1 4,3 6,6 8,1 6 3 11 6 SSW 1023,0 20 0 0,0
15.01.2019 05:00:00 5,8 3,1 4,9 6,7 8,1 9 5 13 7 WSW 1023,4 20 0 0,0
15.01.2019 04:00:00 5,6 3,8 4,8 6,7 8,1 5 3 8 5 SW 1023,8 20 0 0,0
15.01.2019 03:00:00 5,9 3,9 5,1 6,8 8,1 6 3 10 5 WSW 1023,8 20 0 0,0
15.01.2019 02:00:00 6,0 4,2 4,6 6,8 8,1 6 3 8 5 WSW 1023,7 20 0 0,0
15.01.2019 01:00:00 5,9 4,1 4,8 6,9 8,1 6 3 10 5 W 1023,6 20 0 0,0
15.01.2019 00:00:00 5,7 4,3 4,5 7,0 8,1 7 4 9 5 WSW 1023,7 17 0 0,0
14.01.2019 23:00:00 5,4 4,0 3,4 7,1 8,1 4 2 10 5 S 1023,7 13 0 0,0
14.01.2019 22:00:00 4,9 3,6 2,6 7,1 8,1 6 3 12 6 S 1023,5 18 0 0,0
14.01.2019 21:00:00 5,6 3,9 4,2 7,2 8,1 6 3 9 5 S 1023,5 14 0 0,0
14.01.2019 20:00:00 6,1 3,9 5,1 7,2 8,1 3 2 15 8 NE 1023,2 19 0 0,6
14.01.2019 19:00:00 6,6 4,3 5,6 7,2 8,0 8 4 17 9 N 1023,2 8 0 0,4
14.01.2019 18:00:00 7,0 4,0 6,1 7,2 8,0 4 2 11 6 W 1022,9 20 0 0,0
14.01.2019 17:00:00 7,3 3,5 6,7 7,2 8,0 9 5 21 11 NNW 1022,4 20 3 0,0
14.01.2019 16:00:00 7,8 3,1 7,6 7,1 8,0 14 8 36 19 NW 1021,7 20 0 0,0
14.01.2019 15:00:00 8,9 3,9 8,8 7,1 8,0 23 12 34 18 NW 1021,0 20 28 0,0
14.01.2019 14:00:00 8,2 4,0 7,5 7,0 8,0 22 12 34 19 NW 1020,8 20 13 0,0
14.01.2019 13:00:00 7,9 4,5 8,1 7,0 8,0 18 10 34 19 NNW 1020,6 20 0 0,0
14.01.2019 12:00:00 8,1 4,3 8,3 7,0 8,0 23 13 37 20 NW 1020,1 20 35 0,0
14.01.2019 11:00:00 7,7 4,1 7,0 7,0 8,0 18 10 27 15 NW 1019,7 20 10 0,0
14.01.2019 10:00:00 7,1 3,7 6,2 7,1 8,0 16 9 27 15 NW 1019,2 20 12 0,0
14.01.2019 09:00:00 6,9 3,3 5,7 7,2 8,0 18 10 35 19 NW 1018,2 20 0 0,0
14.01.2019 08:00:00 7,1 3,3 6,4 7,3 8,0 20 11 35 19 NW 1017,6 20 0 0,0
14.01.2019 07:00:00 7,4 3,4 6,3 7,3 8,0 21 11 39 21 NW 1016,9 20 0 0,0
14.01.2019 06:00:00 7,6 3,3 6,9 7,4 8,0 26 14 44 24 NW 1016,3 20 0 0,0
14.01.2019 05:00:00 7,8 3,6 7,0 7,5 8,0 21 11 42 23 NW 1015,9 20 0 0,0
14.01.2019 04:00:00 8,3 3,3 6,7 7,6 8,0 28 15 42 23 NW 1015,6 20 0 0,0
14.01.2019 03:00:00 7,5 3,4 6,3 7,7 8,0 22 12 35 19 WNW 1015,0 20 0 0,0
14.01.2019 02:00:00 7,9 2,8 6,9 7,7 8,0 24 13 45 24 WNW 1014,4 20 0 0,0
14.01.2019 01:00:00 8,8 3,6 7,6 7,7 8,0 34 18 61 33 NW 1013,6 20 0 0,2
14.01.2019 00:00:00 9,8 7,6 8,8 7,7 8,0 38 21 60 33 WNW 1012,8 20 0 0,2
13.01.2019 23:00:00 9,8 8,1 9,1 7,7 8,0 35 19 53 29 W 1012,4 18 0 0,0
13.01.2019 22:00:00 9,9 7,8 9,4 7,7 8,0 39 21 64 34 W 1012,3 20 0 0,0
13.01.2019 21:00:00 9,9 8,0 9,4 7,7 8,0 37 20 60 32 W 1012,2 19 0 0,0
13.01.2019 20:00:00 9,9 8,0 9,4 7,6 8,0 38 21 60 33 W 1012,0 16 0 0,0
13.01.2019 19:00:00 9,9 8,0 9,5 7,6 8,0 36 20 63 34 W 1012,0 15 0 0,0
13.01.2019 18:00:00 9,8 7,9 9,4 7,6 8,0 40 22 71 39 W 1012,3 16 0 0,0
13.01.2019 17:00:00 9,8 7,9 9,4 7,6 8,0 43 23 71 38 W 1011,9 16 0 0,0
13.01.2019 16:00:00 9,7 7,6 9,3 7,5 8,0 42 23 68 37 W 1012,2 16 0 0,0
13.01.2019 15:00:00 9,7 7,8 9,5 7,4 8,0 43 23 64 34 W 1012,5 16 0 0,0
13.01.2019 14:00:00 10,0 8,4 9,2 7,4 8,0 37 20 61 33 W 1013,6 14 0 0,2
13.01.2019 13:00:00 9,7 8,5 9,1 7,2 8,0 35 19 60 33 W 1014,6 10 0 0,6
13.01.2019 12:00:00 10,5 8,9 10,0 7,2 8,0 35 19 61 33 W 1015,0 13 0 0,0
13.01.2019 11:00:00 10,1 8,7 9,8 7,1 8,0 27 15 45 24 W 1015,9 11 0 0,0
13.01.2019 10:00:00 10,0 8,4 9,5 7,1 8,0 29 16 46 25 W 1016,1 15 1 0,0
13.01.2019 09:00:00 9,8 8,4 9,3 7,0 8,0 31 17 50 27 W 1015,7 15 0 0,0
13.01.2019 08:00:00 9,6 8,2 8,8 7,0 8,0 31 17 45 25 W 1016,1 15 0 0,0
13.01.2019 07:00:00 9,6 8,0 9,1 6,9 8,0 29 16 50 27 W 1016,6 16 0 0,0
13.01.2019 06:00:00 9,4 7,8 8,9 6,9 8,0 27 15 45 24 W 1017,4 15 0 0,0
13.01.2019 05:00:00 9,3 7,7 8,8 6,8 8,0 28 15 46 25 W 1017,7 14 0 0,0
13.01.2019 04:00:00 9,3 7,7 8,5 6,8 8,0 27 15 45 24 W 1018,1 15 0 0,0
13.01.2019 03:00:00 9,0 7,8 8,1 6,8 8,0 26 14 55 30 W 1018,4 14 0 0,2
13.01.2019 02:00:00 8,9 7,7 7,8 6,7 8,0 32 18 53 28 W 1018,6 17 0 0,4
13.01.2019 01:00:00 8,4 7,5 7,6 6,7 8,0 29 15 50 27 W 1019,1 12 0 0,0
13.01.2019 00:00:00 8,1 7,3 7,6 6,7 8,1 33 18 51 28 W 1019,5 3,0 0 0,2
12.01.2019 23:00:00 8,7 6,7 7,9 6,7 8,1 30 16 45 25 W 1019,8 12 0 0,0
12.01.2019 22:00:00 8,8 6,8 8,0 6,6 8,0 26 14 39 21 W 1020,0 20 0 0,0
12.01.2019 21:00:00 8,6 6,0 7,8 6,6 8,0 24 13 40 22 WNW 1020,2 20 0 0,0
12.01.2019 20:00:00 8,9 7,2 8,3 6,6 8,0 24 13 38 21 W 1020,4 20 0 0,0
12.01.2019 19:00:00 9,1 7,5 8,6 6,5 8,1 27 14 48 26 W 1020,6 20 0 0,0
12.01.2019 18:00:00 9,1 7,7 8,7 6,4 8,1 30 16 51 28 W 1020,7 20 0 0,0
12.01.2019 17:00:00 9,3 7,9 8,6 6,4 8,1 31 17 48 26 W 1021,0 20 0 0,0
12.01.2019 16:00:00 9,2 7,5 8,7 6,2 8,1 25 14 45 24 W 1021,4 20 0 0,0
12.01.2019 15:00:00 9,0 7,1 8,5 6,2 8,0 27 14 51 28 W 1022,0 20 0 0,0
12.01.2019 14:00:00 8,7 7,5 7,9 6,1 8,1 28 15 45 24 W 1022,5 20 0 0,0
12.01.2019 13:00:00 8,3 7,5 7,8 6,0 8,1 29 16 46 25 W 1023,8 6 0 0,4

tt = Température de l'air
td = dewpoint
tt 5cm = Température de l'air 5cm
tt -20cm = Température de l'air -20cm
tt -100cm = Température de l'air -100cm
ff = Vitesse du vent
fx = gusts
dd = Direction du vent
ppp = reduced air pressure
vv = visibility
sd = Ensoleillement
rr = Quantités de précipitations

stations d'obs. à proximité